Home   Weather   Shepparton   Past weeks

Flag for Australia Past Weather in Shepparton, Victoria, Australia — Yesterday and Last 2 Weeks

Now
62 °F

Cool.


Feels Like: 62 °F
Forecast: 48 / 65 °F
Wind: 10 mph from Southwest

Location: Mangalore Airport

Current Time: Oct 20, 2017 at 12:21:58 am

Latest Report: Oct 19, 2017 at 10:00 pm


Visibility: N/A

Pressure: 30.17 "Hg

Humidity: 68%

Dew Point: 51 °F

Location of SheppartonLocation

Past Weather in Shepparton — Graph

°F

Shepparton Temperature Yesterday

Maximum temperature yesterday: 78 °F (at 4:00 pm)
Minimum temperature yesterday: 62 °F (at 10:00 pm)
Average temperature yesterday: 71 °F

High & Low Weather Summary for the Past Weeks

 TemperatureHumidityPressure
High83 °F (Oct 18, 4:00 pm)100% (Oct 16, 7:00 am)30.30 "Hg (Oct 16, 7:00 am)
Low37 °F (Oct 10, 7:00 am)26% (Oct 17, 4:00 pm)29.68 "Hg (Oct 11, 9:00 pm)
Average60 °F66%30.06 "Hg
* Reported Oct 4 10:00 pm — Oct 19 10:00 pm, Shepparton. Weather by CustomWeather, © 2017

Note: Actual official high and low records may vary slightly from our data, if they occured in-between our weather recording intervals... More about our weather records

Advertising

Shepparton Weather History for the Previous 24 Hours

Scroll right to see more
 ConditionsComfort  
Time TempWeatherWind HumidityBarometerVisibility
10:00 pm
Thu, Oct 19
62 °FCool.10 mph68%30.17 "HgN/A
9:00 pm63 °FOvercast.14 mph73%30.13 "HgN/A
7:00 pm74 °FMild.8 mph57%30.04 "HgN/A
6:00 pm76 °FPassing clouds.12 mph52%30.01 "HgN/A
4:00 pm78 °FWarm.9 mph67%29.98 "HgN/A
3:00 pm75 °FOvercast.9 mph77%30.00 "HgN/A
1:00 pm71 °FMild.6 mph84%30.03 "HgN/A
12:00 pm75 °FOvercast.13 mph61%30.04 "HgN/A
10:00 am68 °FMild.10 mph75%30.07 "HgN/A
9:00 am66 °FOvercast.8 mph79%30.06 "HgN/A
7:00 am70 °FMild.13 mph51%30.02 "HgN/A
6:00 am70 °FOvercast.13 mph51%30.00 "HgN/A
4:00 am71 °FMild.13 mph47%30.01 "HgN/A
3:00 am72 °FOvercast.13 mph46%30.03 "HgN/A
1:00 am72 °FMild.13 mph49%30.07 "HgN/A
12:00 am72 °FOvercast.13 mph48%30.08 "HgN/A
Weather by CustomWeather, © 2017

See weather overview